Wind_Speed
26 27 28 28 28 28 28 28 27 27 28 28 28 29 30 31 31 31 32 32 31 31 32 32 32 33 34 35 36 36 36 35 35 35 35 34 34 33 32 31 29 27 25 23 21 20 19 18 17 16 15 14 13 12 11 10 9 8 7 7 7 7 7 8 9 10 11 12 13
28 28 29 29 29 29 28 28 28 28 28 28 28 28 29 29 30 30 30 30 30 30 30 31 32 33 34 35 36 37 37 37 37 37 36 36 35 34 33 31 30 28 26 24 22 21 20 19 18 17 16 15 14 13 12 11 9 8 8 8 7 7 8 8 9 10 12 13 14
29 29 30 30 30 30 30 30 29 29 29 29 28 28 29 28 28 28 28 28 28 29 30 31 32 32 34 35 36 37 38 38 38 38 37 36 36 34 33 32 30 29 27 25 23 21 20 19 18 17 16 16 14 13 12 11 10 9 8 8 8 8 9 9 10 11 12 13 14
29 30 31 31 32 32 32 31 31 30 30 29 29 29 29 28 28 28 28 28 28 29 30 31 31 32 33 35 36 38 39 39 39 38 38 37 36 35 33 32 31 30 28 26 24 22 21 20 19 18 17 16 15 14 13 12 10 9 9 9 9 9 9 10 11 12 13 14 15
30 30 31 32 33 33 33 32 32 31 30 30 29 29 29 29 28 28 28 29 29 30 30 30 31 32 33 35 36 38 39 39 39 38 38 37 36 35 34 33 32 31 29 28 26 24 22 21 20 19 18 16 15 14 13 12 11 10 10 10 10 10 10 10 11 12 13 14 15
31 31 31 32 33 33 33 33 33 32 31 30 30 30 30 30 29 29 29 30 29 29 30 31 32 32 33 35 36 37 38 38 39 38 38 37 36 35 34 33 32 32 31 29 27 25 23 22 20 19 18 17 15 14 13 12 11 11 11 11 11 11 11 11 12 13 14 15 15
32 32 32 32 33 34 34 34 34 33 32 32 31 31 31 30 30 30 30 30 30 30 31 32 32 33 33 34 35 36 37 38 38 38 38 37 37 35 34 33 33 33 32 31 28 26 24 23 21 20 19 17 16 15 14 12 12 11 11 11 11 11 11 12 13 14 15 16 16
33 32 32 32 33 34 35 35 35 34 34 33 33 32 32 31 31 31 31 31 31 32 33 33 33 33 33 33 34 35 36 37 38 38 38 38 37 36 35 34 34 34 33 31 29 27 25 24 22 21 20 18 16 15 14 13 12 12 11 11 11 11 12 13 14 15 16 17 18
33 33 33 33 33 34 35 35 36 36 35 35 34 33 33 32 32 32 32 33 33 33 34 33 33 32 31 31 32 33 34 36 37 37 37 37 37 36 36 35 35 34 33 31 29 27 25 24 23 22 20 18 16 15 14 13 12 12 12 12 12 12 13 14 15 16 17 18 19
34 34 34 34 34 34 35 35 36 36 36 36 35 34 34 34 34 34 34 34 34 34 34 34 33 32 31 30 30 31 33 35 36 36 37 37 37 36 36 36 36 35 33 31 29 27 26 25 24 22 20 18 16 15 14 13 13 13 13 13 13 14 14 15 16 17 18 19 19
34 34 34 35 35 35 35 36 36 37 37 37 36 36 35 35 35 35 35 35 35 35 35 34 34 33 32 30 29 30 32 34 35 36 36 36 36 36 36 36 36 35 33 31 29 28 27 26 25 23 20 18 16 14 14 13 13 13 14 15 15 15 15 16 17 18 19 20 20
34 34 34 35 35 36 36 36 37 37 38 38 37 37 37 37 36 36 36 36 36 36 35 35 34 34 33 31 29 29 30 33 34 36 36 36 36 36 36 36 35 34 33 31 30 28 27 27 25 23 20 18 16 15 14 14 14 15 16 16 16 16 16 17 18 19 20 20 21
34 34 34 35 36 36 37 37 37 38 38 39 39 38 38 38 37 37 37 36 36 36 35 34 34 34 33 31 29 28 29 32 34 35 36 36 36 36 36 35 35 34 33 31 30 29 28 27 25 23 20 17 16 15 15 14 15 15 16 16 16 16 16 18 19 20 20 21 21
34 34 35 35 36 37 37 37 38 38 39 40 39 39 38 38 38 37 37 37 36 35 35 34 34 33 33 31 29 28 28 31 33 35 36 36 36 36 36 35 34 34 32 31 30 29 28 27 25 22 19 17 17 16 16 15 15 16 16 15 15 15 16 18 19 20 20 21 21
35 35 35 36 37 37 38 38 39 39 39 40 39 39 38 38 38 37 37 36 36 35 35 34 33 32 32 31 29 28 28 30 33 35 36 36 36 36 36 35 34 34 32 31 30 29 27 26 24 22 19 18 18 18 17 16 16 15 15 14 14 15 16 18 19 19 20 21 21
36 36 36 37 38 38 39 39 40 39 39 39 39 38 38 38 37 37 37 37 36 35 34 33 32 32 31 31 30 28 28 30 33 35 36 36 36 36 36 35 35 34 33 31 30 29 27 26 24 22 20 20 20 19 17 16 15 15 14 13 14 15 17 18 19 20 20 21 21
37 37 38 38 39 39 39 40 40 40 39 39 38 38 37 37 37 37 37 37 36 35 34 32 31 31 31 31 30 29 29 31 33 35 35 36 36 36 35 35 34 33 32 31 30 29 28 26 24 23 23 23 22 19 17 16 15 14 14 14 15 16 18 19 19 20 21 21 22
38 38 39 39 39 40 40 40 40 39 38 38 37 36 36 37 37 38 38 38 37 36 34 32 31 31 31 31 31 30 30 31 33 34 35 34 34 34 34 34 34 33 32 31 30 30 29 27 25 25 26 26 23 19 16 15 14 14 14 16 17 18 19 19 20 21 21 22 23
39 39 40 40 40 40 40 39 39 38 37 36 35 35 35 36 37 37 37 37 37 35 34 32 31 31 31 31 31 31 31 31 33 33 33 33 33 33 33 33 32 32 31 31 31 30 28 26 26 28 28 26 21 18 16 14 14 15 16 17 19 20 20 20 21 22 22 23 23
39 40 40 40 41 40 40 39 38 37 36 35 34 34 34 35 36 37 37 37 36 35 33 32 31 31 31 31 31 30 30 31 31 32 32 32 32 32 32 32 31 31 31 31 30 29 27 27 29 30 28 24 20 17 15 14 15 16 17 19 20 20 20 21 22 22 23 24 24
39 39 40 40 41 40 39 38 37 36 35 34 33 33 34 34 35 36 36 36 35 34 33 32 32 31 31 31 30 30 30 30 30 30 30 30 31 31 31 31 31 31 32 31 30 28 28 31 32 31 26 21 18 15 14 15 15 17 18 19 20 20 20 21 22 23 24 25 25
38 39 39 40 40 40 39 37 36 35 34 33 33 33 34 34 34 35 34 34 34 33 32 32 31 31 31 30 30 30 30 30 30 30 30 30 30 30 31 31 32 33 32 31 29 29 32 34 33 29 23 19 16 14 14 16 17 18 19 19 20 20 21 22 23 24 25 26 26
37 37 38 38 38 38 37 36 34 34 33 33 33 34 34 35 34 34 33 33 33 32 32 32 31 31 30 30 30 30 30 30 30 31 31 31 31 31 32 33 34 34 32 30 29 32 34 34 31 25 20 16 14 14 15 17 19 20 20 20 20 21 22 23 24 25 26 26 27
35 36 36 37 36 36 35 34 34 33 34 34 34 35 35 35 34 33 33 32 32 32 31 31 31 30 29 29 29 30 31 31 32 32 32 33 33 33 34 35 35 33 31 30 31 33 33 31 26 21 16 13 13 15 17 19 20 21 22 22 22 22 23 24 25 26 26 27 27
34 35 36 35 35 35 35 35 35 35 35 36 36 37 37 36 35 34 33 32 32 31 31 30 30 29 28 28 29 30 31 32 33 33 34 34 34 34 35 36 35 33 32 31 32 31 29 25 20 16 13 12 14 16 18 20 21 23 23 23 24 24 25 26 26 27 27 27 27
34 35 35 35 36 36 36 36 36 36 37 37 37 38 38 37 36 35 33 32 32 31 30 29 29 28 28 29 30 31 32 32 33 34 34 34 34 35 35 36 35 34 33 32 31 28 24 19 15 12 11 13 16 18 19 21 22 23 24 24 25 25 26 27 28 28 28 27 27
34 34 35 36 37 38 38 38 38 38 38 38 39 39 38 37 36 34 33 32 31 31 30 29 29 29 29 30 30 31 32 33 33 34 35 35 35 35 36 36 36 35 33 31 27 23 18 14 11 11 13 16 18 20 21 21 22 22 23 24 25 26 26 27 28 28 28 27 27
34 34 36 38 39 39 39 39 39 40 40 40 40 39 39 37 36 34 33 32 31 31 30 30 30 30 30 30 30 31 32 33 35 36 37 37 36 36 36 36 35 33 30 26 22 18 14 11 10 12 15 18 19 20 21 22 22 23 23 24 24 25 26 27 27 27 27 27 27
35 36 38 39 39 39 40 40 40 41 41 41 40 40 38 37 35 34 33 32 31 30 30 29 28 28 28 29 29 30 32 34 36 37 38 38 37 36 35 34 32 29 26 22 18 14 11 10 11 13 15 17 18 19 20 21 22 22 23 23 24 25 25 26 26 26 26 26 26
37 38 38 37 37 37 38 40 41 41 41 41 40 39 37 36 34 33 32 31 30 29 27 26 25 25 26 27 28 30 33 35 36 37 38 38 37 36 34 31 27 24 21 18 15 12 11 11 12 13 14 15 16 17 18 19 20 21 22 22 23 24 25 25 25 24 24 24 24
38 38 37 36 36 36 37 39 40 40 40 40 39 38 36 33 32 32 31 30 29 27 25 24 23 23 24 25 28 31 33 36 37 38 38 37 36 34 30 26 22 19 17 15 14 13 12 12 11 12 12 12 13 14 15 17 18 19 21 22 23 23 24 24 23 23 23 23 23
36 36 35 35 36 37 37 38 38 38 38 38 38 36 34 31 31 31 31 30 29 27 25 24 23 23 23 26 29 32 34 36 37 37 36 34 32 29 25 21 18 17 16 15 15 14 14 12 11 10 11 11 12 14 15 16 18 19 21 22 22 23 23 23 23 23 23 23 24
34 34 34 35 36 36 37 36 35 35 36 36 35 34 33 31 30 30 30 30 29 27 26 25 24 25 26 29 31 33 35 36 36 35 33 30 27 23 19 17 16 16 16 16 17 16 15 13 12 11 12 13 14 16 16 17 19 20 21 22 22 22 22 22 23 23 23 24 25
31 32 33 33 34 35 34 34 33 33 33 33 33 33 32 32 31 30 30 30 29 28 27 27 26 27 28 29 31 32 34 34 33 32 29 26 22 19 17 16 16 17 18 18 18 17 16 14 13 13 14 16 17 18 18 19 20 20 21 21 22 22 22 23 23 24 25 25 26
27 28 30 31 31 32 31 31 30 30 31 31 32 32 32 32 32 31 30 30 29 28 28 27 26 26 26 27 29 30 31 31 29 27 24 20 18 17 17 17 18 19 20 20 19 18 17 15 15 15 16 18 19 19 20 20 20 21 21 22 22 22 23 23 24 25 26 27 28
24 25 26 27 28 28 29 29 29 29 29 29 30 30 30 30 30 30 30 30 29 28 27 25 24 23 23 25 26 26 26 25 23 20 18 17 17 17 18 19 20 21 21 21 20 19 18 16 16 16 18 19 20 20 20 20 21 21 22 22 23 23 24 24 25 26 27 27 28
22 22 23 24 25 26 26 27 27 27 27 27 27 27 28 28 28 29 29 28 27 24 22 21 20 19 19 20 20 20 19 17 16 16 16 17 17 18 19 20 21 22 22 21 20 19 18 17 17 18 19 20 20 20 20 21 21 22 22 23 24 24 24 25 25 26 27 27 28
22 22 22 23 23 24 25 25 25 25 25 24 24 24 24 24 24 24 24 22 20 18 17 16 15 15 15 15 14 14 14 14 14 15 16 18 19 20 20 21 21 22 21 21 20 19 18 17 18 19 20 20 20 20 20 20 21 22 22 23 24 24 24 25 25 26 26 27 27
22 23 23 23 23 23 24 24 24 23 22 21 21 20 20 19 19 18 17 15 14 13 13 12 12 12 12 12 12 12 13 14 15 16 18 19 20 20 21 21 21 21 20 19 19 18 18 18 19 19 20 20 19 19 19 19 20 21 22 23 24 24 25 25 25 26 26 26 26
23 23 23 23 23 23 23 22 22 21 20 18 17 16 16 15 14 13 12 11 10 10 11 11 11 11 11 12 12 13 14 15 16 18 19 20 20 20 20 20 20 19 19 18 17 17 18 19 19 20 20 19 18 18 18 19 21 22 23 23 24 25 25 25 25 25 26 26 26
24 23 23 22 22 22 21 21 20 19 17 15 14 13 12 12 12 11 10 10 10 10 11 11 11 12 12 12 13 14 15 17 18 19 19 20 20 20 19 19 18 18 17 17 17 17 18 19 19 19 18 18 18 18 19 20 21 23 23 24 24 24 25 25 25 25 25 26 26
Wind_Direction
195 195 197 200 205 209 211 212 213 213 214 215 215 215 217 219 220 221 222 224 225 226 226 226 225 224 224 223 224 226 227 229 230 231 232 232 232 231 230 231 232 232 232 232 232 233 234 236 238 240 242 243 244 244 244 244 241 239 240 244 248 254 259 260 256 251 248 248 251
197 197 198 201 206 210 213 214 214 214 215 217 218 218 219 222 224 226 228 229 230 230 229 229 229 228 226 226 227 227 228 229 230 231 232 232 232 231 231 231 232 232 233 232 233 233 234 236 237 239 240 241 241 242 243 244 242 239 240 244 248 255 260 260 258 255 253 253 253
200 199 199 202 206 210 213 214 214 215 216 217 218 219 220 223 226 228 230 231 232 231 231 230 231 230 229 229 228 228 228 228 229 230 231 231 231 232 231 231 232 233 233 233 234 234 235 236 238 239 239 239 240 241 242 243 242 241 242 245 251 258 260 256 255 254 254 254 253
202 201 201 203 207 210 214 216 216 217 217 218 218 219 220 223 226 229 230 231 232 232 232 232 233 233 232 230 229 228 228 228 228 229 230 231 231 231 231 231 232 233 234 235 234 234 235 236 237 238 238 238 238 240 241 241 241 242 244 248 253 258 260 258 255 255 255 254 252
204 204 205 206 209 212 216 218 219 219 219 219 219 219 220 223 226 228 230 231 232 234 235 235 235 234 233 231 230 228 227 227 227 228 229 231 231 231 231 232 233 235 236 236 235 234 234 234 236 236 236 236 237 238 239 239 240 242 245 249 252 257 261 261 257 255 254 253 251
205 207 208 209 211 213 216 219 221 221 221 220 220 220 221 223 226 228 230 233 235 237 237 236 235 234 233 231 230 228 227 226 227 228 229 230 231 230 230 232 234 236 237 236 235 233 232 233 233 234 234 234 234 235 236 237 238 242 245 248 252 257 260 260 257 254 252 251 249
206 208 210 211 213 214 216 219 220 221 221 222 222 223 224 226 228 231 234 236 238 237 236 235 234 233 232 231 229 227 227 227 227 228 229 230 231 230 230 232 234 236 236 235 233 231 230 231 232 232 232 232 231 232 233 235 238 242 245 248 253 257 257 256 255 253 250 248 247
208 209 210 213 214 216 217 219 220 221 221 222 224 226 227 227 230 233 235 237 238 237 235 233 232 231 231 230 229 228 227 227 227 228 229 230 230 231 232 233 234 235 235 233 230 228 228 229 230 231 231 230 230 231 233 236 240 244 248 252 256 259 259 257 254 250 248 247 246
208 209 211 213 216 218 219 220 221 221 222 223 226 227 227 226 229 232 234 236 237 237 235 232 231 229 228 227 228 229 229 227 227 228 229 230 230 231 232 233 233 233 232 230 227 226 226 228 229 230 231 230 229 230 234 238 242 245 250 255 260 263 263 258 252 248 246 246 246
208 208 210 213 216 219 220 221 222 222 223 224 226 227 226 226 228 230 233 235 237 236 234 232 230 228 227 225 226 228 230 229 228 228 229 230 230 230 230 231 231 230 229 228 225 224 225 227 229 230 230 229 228 229 234 238 241 245 249 255 263 269 268 260 252 248 247 247 248
209 209 210 213 216 219 220 221 221 222 223 224 225 226 226 226 227 228 231 233 233 233 232 232 230 229 229 230 227 227 228 229 229 229 229 228 229 229 229 229 229 229 228 227 225 224 225 227 229 229 228 226 225 227 230 234 237 241 246 252 262 268 267 259 252 249 249 250 251
210 210 211 213 216 218 219 220 220 220 221 222 223 224 224 224 225 226 228 229 230 231 232 231 231 231 233 234 232 227 225 227 228 228 227 227 226 226 226 227 228 228 227 227 225 224 225 227 228 228 227 224 223 225 228 231 234 239 245 251 259 264 262 256 252 250 251 253 254
210 210 212 214 216 218 218 219 219 219 219 220 220 221 222 222 223 224 225 227 229 230 230 230 231 233 235 238 235 228 223 224 225 226 225 224 224 224 224 225 226 227 227 226 226 225 226 227 228 227 226 224 224 226 229 233 238 244 251 256 260 259 256 253 251 252 253 254 256
211 211 213 214 215 216 216 216 216 217 217 218 218 219 220 220 221 222 224 226 228 229 229 229 230 233 236 239 236 230 224 223 223 223 223 222 222 222 222 223 225 225 225 225 226 226 226 227 227 227 226 226 226 229 234 240 248 255 261 263 260 256 254 253 252 252 253 255 257
211 212 213 215 215 215 215 215 215 215 216 217 217 217 218 219 220 221 223 225 227 228 228 228 229 231 234 236 234 231 226 223 223 222 221 220 220 220 221 222 223 224 224 224 225 225 226 228 228 228 227 227 228 233 240 250 259 264 267 266 259 256 255 254 253 253 253 255 257
210 212 214 215 215 215 215 214 215 215 215 216 216 217 217 218 219 221 222 224 225 225 226 227 228 230 230 230 231 229 226 224 223 222 221 220 219 220 220 221 222 222 223 223 223 224 227 230 230 229 227 227 231 239 250 261 267 267 265 262 258 255 254 254 254 254 255 256 257
210 211 213 214 214 214 214 214 214 214 214 216 216 217 218 218 219 221 222 223 224 224 224 225 227 227 227 226 226 226 225 223 222 221 221 220 220 220 220 220 221 221 221 221 222 225 230 232 230 227 226 228 234 245 258 267 268 264 258 254 253 252 252 253 254 255 256 257 258
209 211 212 213 214 214 214 214 213 213 214 215 216 217 218 219 220 221 222 223 224 223 222 223 225 226 225 223 224 224 223 222 221 221 221 220 220 220 219 219 219 220 220 222 225 230 234 233 227 223 224 229 238 250 262 266 264 258 251 247 246 246 248 250 252 253 255 257 258
209 210 211 212 213 213 214 214 214 214 215 216 216 217 219 220 221 221 221 222 223 223 222 223 224 225 224 223 223 223 222 221 220 220 220 220 219 219 218 218 217 218 221 225 231 236 237 231 223 221 224 232 244 255 262 262 257 251 245 243 242 244 246 249 250 251 253 255 257
208 209 210 211 212 213 214 214 215 215 216 216 217 217 218 220 221 220 219 219 220 221 221 222 222 223 223 222 222 222 221 220 219 218 218 218 218 217 216 216 216 219 224 230 235 237 233 225 221 222 228 239 251 260 261 257 252 247 244 243 243 246 250 251 251 252 252 254 256
208 209 210 210 211 212 214 215 216 216 216 217 217 217 217 217 218 218 218 217 217 218 219 220 220 220 220 220 219 219 219 219 217 217 216 216 215 215 215 215 218 223 229 233 235 232 225 221 221 225 234 248 257 260 257 253 250 248 246 246 248 251 254 254 255 254 254 255 257
208 209 210 210 211 212 214 215 216 216 216 216 216 216 215 215 214 215 216 215 215 216 217 218 219 219 218 218 217 216 216 215 215 215 215 215 214 214 215 218 222 226 230 233 231 225 221 220 224 231 241 253 258 257 253 249 249 249 250 252 255 257 258 258 258 257 258 259 261
207 209 209 210 211 212 214 215 215 215 214 214 213 213 213 212 212 212 212 212 213 215 216 217 218 218 218 217 216 214 213 212 212 213 215 215 215 216 218 222 225 228 231 233 227 222 220 222 227 236 247 254 254 250 247 247 248 249 252 256 259 261 262 262 261 261 262 264 266
205 206 208 209 210 211 212 213 212 212 211 211 210 210 210 209 208 208 209 209 211 213 215 216 216 217 217 216 214 212 211 211 210 211 213 215 216 218 221 224 227 230 231 230 226 223 223 226 233 242 250 252 248 244 243 244 246 248 251 256 260 263 264 264 264 265 266 268 270
202 203 205 206 208 209 210 210 209 208 208 208 208 209 208 207 207 207 207 207 209 211 213 213 214 214 213 211 210 211 212 212 211 210 212 215 219 221 224 226 228 229 228 225 224 225 228 232 240 248 251 248 243 241 242 243 245 247 250 255 259 262 265 265 266 268 269 271 273
200 201 203 205 207 208 208 207 206 206 206 206 207 207 207 207 206 206 206 206 208 209 210 210 210 209 208 208 209 212 213 213 211 211 213 217 221 225 227 227 228 226 225 223 224 226 231 238 245 249 247 242 239 240 242 245 247 249 253 257 260 263 265 267 269 270 272 273 274
199 200 203 207 208 207 207 206 206 205 205 205 205 205 206 206 205 205 205 205 206 206 207 207 207 207 208 212 215 216 215 213 212 214 217 220 223 225 227 228 227 226 225 225 226 229 235 242 245 243 240 239 240 242 245 249 252 255 259 263 265 267 268 270 271 273 274 275 275
200 202 206 208 207 207 207 206 205 204 204 204 204 204 204 204 203 203 204 204 205 205 205 206 208 211 215 221 224 223 220 216 216 218 220 222 224 224 225 227 228 229 230 229 229 231 236 241 239 237 237 240 243 247 250 255 258 261 263 266 267 269 270 272 274 275 276 277 277
203 205 206 205 205 206 206 206 205 205 204 204 203 203 202 202 202 202 203 204 205 206 208 211 215 220 225 229 230 227 223 220 220 222 223 224 224 225 227 230 233 235 234 231 230 232 234 235 235 237 239 243 248 252 255 258 260 262 264 266 268 270 272 273 275 277 278 278 278
204 204 202 200 199 200 201 202 203 203 203 203 202 201 199 199 200 201 202 204 206 209 214 219 226 231 234 234 231 227 223 221 222 224 225 225 226 228 232 236 239 239 235 231 230 230 231 233 237 240 243 248 253 257 259 261 263 265 267 269 270 272 274 275 276 277 278 279 279
202 201 198 195 193 194 196 198 198 198 200 201 200 199 197 196 198 201 204 207 211 216 223 230 237 241 239 234 229 225 222 222 222 224 225 227 230 234 239 243 242 237 232 228 227 228 229 234 240 246 253 260 265 268 269 270 270 271 272 273 274 275 276 277 278 279 279 280 282
198 196 193 191 191 193 195 195 193 194 197 200 200 199 198 198 201 206 211 214 218 224 231 238 244 244 239 231 225 223 223 223 223 225 227 230 236 241 244 242 236 230 227 225 225 226 230 236 246 258 271 280 284 285 284 282 280 278 277 276 276 277 278 279 281 282 283 285 286
197 194 191 189 191 194 195 193 192 193 197 200 202 203 203 204 207 212 217 221 225 231 238 244 247 245 239 232 227 225 224 225 226 228 232 237 243 245 242 235 228 225 224 224 225 228 233 242 256 273 287 295 298 297 294 291 287 283 281 279 279 280 282 283 285 286 288 289 291
199 195 192 190 192 194 196 195 194 196 199 203 207 209 210 210 212 216 221 226 230 237 244 250 252 250 245 240 234 230 228 228 230 234 239 244 245 241 233 226 224 223 224 225 227 231 238 249 266 283 295 301 303 301 298 294 289 286 283 283 283 284 286 287 288 290 291 292 292
198 196 194 193 195 197 199 200 200 201 203 206 210 213 214 215 217 221 226 231 237 243 248 252 253 251 247 242 239 236 234 234 236 240 243 242 237 230 225 223 222 224 225 227 229 234 242 255 272 287 298 303 303 301 298 294 290 287 285 285 285 286 287 288 289 290 291 291 291
198 198 198 199 200 202 204 205 207 207 208 210 213 215 217 220 223 228 232 237 242 246 248 248 246 243 239 236 236 236 236 238 239 239 235 230 225 223 223 223 224 225 227 229 232 237 246 259 276 290 298 302 302 299 296 292 288 286 285 284 285 285 286 287 288 288 289 289 289
201 203 204 205 206 208 210 212 214 215 216 217 219 221 224 227 230 233 236 239 241 242 240 238 235 232 231 231 232 232 233 232 229 226 223 221 222 223 224 225 227 229 230 232 235 241 251 264 280 291 298 300 299 296 292 288 285 284 283 283 283 284 285 286 287 287 287 288 288
206 207 209 210 212 214 217 220 222 224 225 226 228 229 230 232 233 234 235 235 234 232 230 228 227 226 226 227 226 224 221 218 217 217 218 220 222 225 227 229 231 232 234 236 239 246 257 271 284 292 296 297 295 292 288 286 284 283 283 283 284 284 285 286 287 288 288 289 290
209 210 212 214 216 219 222 226 228 230 231 232 232 231 231 231 230 231 231 229 227 226 225 225 225 224 224 222 220 217 214 213 214 216 219 221 224 227 230 232 234 237 239 241 246 254 265 277 287 292 294 293 291 288 286 285 284 284 285 285 286 287 288 289 290 290 291 291 292
209 211 213 215 218 221 225 227 229 231 231 230 229 228 227 227 226 227 227 226 225 225 226 227 227 225 223 220 217 214 212 212 214 217 220 223 227 230 233 236 238 240 243 247 254 263 274 283 289 291 291 289 287 286 285 285 285 286 286 287 288 289 291 291 292 293 293 294 294
207 209 212 215 218 221 223 224 225 225 225 224 223 223 223 222 222 222 223 222 222 223 225 226 226 224 221 217 214 212 212 212 214 217 221 224 228 231 234 237 239 242 247 254 263 273 281 286 288 288 286 284 283 282 283 283 284 285 285 287 289 291 292 293 294 294 295 295 295
Height
1514 1514 1515 1515 1516 1516 1517 1518 1519 1520 1521 1521 1522 1523 1524 1524 1525 1526 1527 1527 1528 1529 1529 1530 1531 1532 1532 1533 1533 1533 1534 1534 1535 1536 1537 1538 1539 1540 1541 1541 1542 1543 1543 1544 1545 1545 1545 1546 1546 1546 1546 1547 1547 1547 1547 1548 1548 1548 1548 1548 1548 1548 1548 1548 1548 1548 1548 1548 1548
1512 1513 1514 1514 1515 1515 1516 1517 1518 1519 1519 1520 1521 1522 1523 1523 1524 1524 1525 1526 1527 1527 1528 1529 1529 1530 1531 1531 1532 1532 1533 1533 1534 1534 1535 1536 1537 1539 1539 1540 1540 1541 1542 1543 1543 1544 1544 1544 1544 1545 1545 1545 1545 1545 1546 1546 1546 1546 1546 1546 1546 1546 1546 1546 1547 1547 1546 1546 1546
1511 1512 1513 1514 1514 1514 1515 1515 1516 1517 1518 1519 1520 1521 1521 1522 1522 1523 1524 1524 1525 1526 1526 1527 1528 1528 1529 1530 1530 1531 1532 1532 1533 1533 1534 1535 1536 1537 1538 1539 1539 1540 1540 1541 1542 1542 1543 1543 1543 1543 1544 1544 1544 1544 1544 1544 1545 1545 1545 1545 1545 1545 1545 1545 1545 1545 1545 1545 1545
1510 1511 1512 1513 1513 1513 1513 1514 1515 1516 1517 1518 1519 1520 1520 1521 1521 1522 1522 1523 1523 1524 1524 1525 1526 1527 1527 1528 1529 1530 1530 1531 1531 1532 1533 1533 1534 1535 1536 1537 1538 1538 1539 1539 1540 1541 1541 1541 1541 1542 1542 1542 1542 1543 1543 1543 1544 1544 1544 1544 1544 1544 1544 1544 1544 1544 1544 1544 1543
1509 1510 1511 1511 1511 1512 1512 1513 1514 1514 1515 1517 1518 1518 1519 1519 1520 1520 1521 1521 1521 1522 1523 1524 1524 1525 1526 1527 1528 1529 1529 1530 1530 1531 1531 1532 1533 1534 1534 1535 1536 1536 1537 1538 1539 1539 1539 1539 1540 1540 1540 1541 1541 1541 1542 1542 1542 1543 1543 1543 1542 1542 1542 1542 1542 1542 1542 1542 1542
1508 1509 1509 1510 1510 1511 1511 1512 1513 1514 1514 1515 1516 1517 1517 1518 1518 1519 1519 1519 1520 1521 1522 1522 1523 1524 1525 1526 1527 1528 1529 1529 1529 1529 1530 1531 1531 1532 1533 1533 1534 1534 1535 1536 1537 1537 1537 1538 1538 1539 1539 1539 1540 1540 1540 1541 1541 1541 1541 1541 1541 1541 1541 1541 1541 1541 1541 1540 1540
1506 1507 1508 1509 1509 1510 1511 1511 1512 1513 1513 1514 1514 1515 1515 1515 1516 1517 1517 1518 1519 1520 1520 1521 1522 1523 1524 1525 1526 1527 1528 1528 1528 1528 1529 1529 1530 1530 1531 1531 1532 1533 1533 1534 1534 1535 1535 1536 1536 1537 1537 1538 1538 1539 1539 1539 1539 1540 1540 1540 1540 1540 1540 1540 1539 1539 1539 1539 1539
1505 1506 1507 1508 1508 1509 1509 1510 1511 1511 1512 1512 1513 1513 1514 1514 1514 1515 1516 1517 1518 1519 1519 1520 1521 1522 1523 1524 1525 1526 1527 1527 1527 1527 1527 1528 1528 1529 1529 1530 1530 1530 1531 1532 1532 1533 1533 1534 1534 1535 1536 1536 1537 1537 1537 1537 1538 1538 1538 1539 1539 1539 1539 1539 1538 1538 1538 1538 1538
1504 1505 1505 1506 1507 1508 1508 1509 1509 1510 1510 1510 1511 1512 1512 1513 1514 1514 1515 1516 1517 1517 1518 1519 1519 1520 1521 1523 1524 1525 1526 1526 1526 1526 1526 1526 1527 1527 1528 1528 1528 1529 1529 1530 1531 1532 1532 1532 1533 1534 1534 1535 1535 1535 1536 1536 1536 1536 1537 1537 1537 1537 1537 1537 1537 1537 1537 1537 1536
1503 1504 1504 1505 1505 1506 1507 1507 1508 1509 1509 1509 1510 1511 1511 1512 1513 1513 1514 1514 1515 1516 1517 1518 1518 1519 1519 1520 1522 1523 1524 1525 1525 1525 1525 1525 1525 1526 1526 1526 1527 1527 1528 1529 1530 1531 1531 1531 1532 1532 1533 1534 1534 1534 1534 1535 1535 1535 1535 1535 1535 1535 1535 1535 1535 1535 1535 1535 1535
1501 1502 1503 1503 1504 1504 1505 1506 1507 1507 1508 1509 1509 1509 1510 1511 1511 1512 1512 1513 1514 1514 1515 1516 1517 1517 1517 1517 1519 1520 1522 1523 1523 1523 1524 1524 1524 1524 1524 1525 1525 1526 1527 1528 1529 1529 1530 1530 1530 1531 1532 1532 1533 1533 1533 1533 1533 1534 1534 1534 1534 1533 1533 1533 1534 1534 1534 1534 1534
1500 1501 1501 1502 1502 1503 1504 1504 1505 1506 1507 1507 1508 1508 1509 1509 1510 1510 1511 1511 1512 1512 1513 1514 1515 1515 1515 1515 1516 1518 1519 1521 1521 1522 1522 1522 1522 1523 1523 1524 1524 1525 1526 1527 1527 1528 1528 1529 1529 1530 1530 1531 1532 1532 1532 1532 1532 1532 1532 1532 1532 1531 1531 1532 1532 1532 1532 1532 1532
1499 1500 1500 1500 1501 1502 1502 1503 1504 1504 1505 1505 1506 1507 1508 1508 1509 1509 1509 1509 1510 1511 1512 1513 1513 1514 1514 1514 1514 1515 1517 1518 1519 1519 1520 1520 1521 1521 1522 1522 1523 1524 1524 1525 1526 1526 1527 1527 1528 1529 1529 1530 1530 1530 1530 1530 1530 1530 1530 1530 1530 1530 1530 1530 1530 1530 1530 1531 1531
1498 1499 1499 1499 1499 1500 1501 1501 1502 1503 1503 1504 1505 1505 1506 1507 1508 1508 1508 1508 1509 1509 1510 1511 1512 1512 1513 1513 1514 1514 1515 1516 1517 1518 1518 1519 1519 1520 1520 1521 1522 1523 1524 1524 1525 1525 1526 1526 1527 1528 1529 1529 1529 1529 1529 1529 1528 1528 1528 1528 1528 1528 1529 1529 1529 1529 1529 1529 1529
1496 1497 1497 1498 1498 1499 1499 1500 1500 1501 1502 1502 1503 1504 1505 1505 1506 1506 1506 1506 1507 1508 1509 1509 1510 1511 1512 1512 1513 1513 1514 1515 1515 1516 1517 1517 1518 1518 1519 1519 1520 1521 1522 1523 1524 1524 1525 1526 1527 1527 1528 1528 1528 1527 1527 1527 1527 1526 1526 1526 1526 1527 1527 1527 1527 1528 1528 1528 1528
1495 1495 1496 1496 1496 1497 1497 1498 1498 1499 1500 1501 1502 1503 1504 1504 1504 1504 1504 1505 1505 1506 1507 1508 1509 1510 1510 1511 1511 1512 1512 1513 1514 1514 1515 1516 1516 1517 1517 1517 1518 1519 1520 1521 1522 1523 1524 1524 1525 1526 1527 1527 1526 1525 1525 1525 1525 1525 1525 1525 1525 1525 1525 1525 1526 1526 1526 1526 1526
1493 1493 1494 1494 1494 1494 1495 1496 1496 1497 1498 1499 1500 1501 1502 1503 1503 1503 1503 1503 1503 1504 1505 1507 1508 1509 1509 1509 1510 1510 1511 1512 1513 1513 1514 1514 1515 1515 1516 1516 1517 1518 1519 1520 1521 1521 1521 1522 1523 1524 1525 1524 1524 1524 1524 1524 1524 1524 1524 1524 1524 1524 1524 1524 1524 1524 1524 1524 1524
1490 1491 1491 1491 1492 1492 1493 1494 1494 1495 1496 1497 1499 1500 1500 1501 1501 1501 1501 1501 1501 1502 1504 1505 1506 1507 1507 1508 1509 1509 1510 1510 1511 1512 1513 1514 1514 1515 1516 1516 1516 1517 1518 1518 1519 1519 1519 1520 1521 1522 1522 1521 1521 1522 1523 1523 1523 1523 1523 1523 1523 1523 1523 1523 1523 1523 1523 1523 1523
1488 1488 1489 1489 1489 1490 1491 1492 1493 1494 1494 1496 1497 1498 1498 1499 1499 1499 1499 1500 1500 1501 1502 1504 1504 1505 1506 1507 1507 1508 1509 1509 1510 1511 1512 1513 1514 1515 1516 1516 1516 1516 1517 1517 1517 1517 1517 1518 1519 1519 1519 1519 1519 1520 1521 1521 1521 1521 1522 1522 1522 1522 1522 1522 1522 1522 1522 1522 1522
1485 1485 1486 1486 1487 1488 1489 1489 1490 1492 1493 1494 1495 1496 1496 1496 1497 1497 1498 1498 1499 1500 1501 1502 1503 1504 1504 1505 1506 1507 1508 1509 1510 1511 1512 1513 1513 1514 1515 1516 1516 1516 1516 1516 1515 1516 1516 1517 1517 1516 1516 1518 1519 1519 1519 1519 1519 1520 1520 1520 1520 1520 1521 1521 1521 1520 1520 1520 1520
1482 1483 1483 1484 1484 1485 1486 1488 1489 1490 1491 1492 1493 1494 1494 1494 1495 1495 1496 1497 1498 1499 1500 1501 1501 1502 1503 1504 1504 1505 1507 1508 1509 1510 1511 1512 1513 1514 1514 1515 1515 1515 1514 1514 1514 1514 1515 1515 1514 1515 1516 1517 1517 1517 1517 1517 1518 1518 1519 1519 1519 1519 1519 1519 1519 1519 1519 1519 1519
1480 1481 1481 1482 1483 1484 1485 1486 1487 1489 1489 1490 1491 1491 1492 1492 1493 1494 1495 1496 1497 1498 1499 1499 1500 1501 1501 1502 1503 1504 1505 1506 1508 1509 1510 1511 1512 1513 1513 1513 1513 1513 1512 1512 1512 1512 1512 1512 1513 1514 1515 1516 1515 1515 1515 1516 1516 1517 1517 1517 1518 1518 1518 1518 1518 1518 1517 1517 1517
1479 1480 1480 1481 1482 1483 1484 1485 1486 1487 1488 1489 1489 1489 1490 1491 1492 1493 1494 1495 1496 1496 1497 1498 1499 1499 1500 1501 1502 1502 1503 1504 1505 1506 1507 1509 1509 1510 1511 1511 1510 1510 1510 1510 1510 1510 1510 1511 1513 1514 1514 1514 1513 1513 1514 1514 1514 1515 1515 1516 1516 1516 1516 1516 1516 1516 1516 1516 1515
1478 1479 1479 1480 1481 1482 1483 1484 1484 1485 1486 1486 1487 1488 1488 1489 1490 1491 1492 1494 1494 1495 1496 1497 1498 1499 1499 1500 1501 1501 1502 1502 1503 1503 1504 1505 1506 1507 1508 1508 1508 1508 1508 1508 1508 1508 1509 1511 1513 1513 1513 1512 1512 1512 1512 1513 1513 1514 1514 1514 1514 1514 1514 1514 1514 1514 1514 1514 1514
1477 1478 1479 1479 1480 1481 1481 1482 1483 1483 1484 1484 1485 1485 1486 1487 1488 1489 1490 1492 1493 1494 1494 1495 1496 1497 1498 1499 1500 1500 1501 1501 1501 1501 1502 1503 1504 1504 1505 1505 1505 1506 1506 1505 1506 1507 1509 1511 1512 1512 1511 1511 1511 1511 1512 1512 1512 1513 1513 1513 1513 1513 1512 1512 1512 1512 1512 1512 1511
1474 1476 1477 1478 1478 1479 1479 1480 1480 1481 1482 1482 1483 1484 1484 1485 1486 1487 1489 1490 1491 1492 1493 1494 1495 1496 1497 1498 1498 1499 1499 1500 1501 1501 1501 1501 1502 1502 1503 1503 1504 1504 1504 1504 1505 1507 1509 1511 1510 1510 1509 1510 1510 1511 1511 1511 1511 1511 1511 1511 1511 1511 1511 1510 1510 1510 1510 1510 1509
1473 1474 1476 1476 1476 1477 1477 1478 1479 1479 1480 1481 1482 1482 1483 1484 1484 1486 1487 1489 1490 1491 1492 1493 1494 1494 1495 1496 1497 1497 1498 1499 1499 1500 1500 1500 1500 1500 1500 1501 1501 1501 1502 1504 1506 1508 1509 1509 1509 1508 1509 1509 1510 1510 1510 1510 1510 1510 1510 1510 1510 1509 1509 1509 1509 1508 1508 1508 1508
1472 1474 1474 1474 1474 1475 1476 1477 1477 1478 1479 1479 1480 1481 1481 1482 1484 1485 1486 1487 1488 1489 1490 1491 1492 1493 1494 1494 1495 1495 1496 1497 1497 1498 1498 1498 1498 1498 1499 1499 1499 1500 1502 1504 1506 1507 1507 1507 1507 1508 1508 1509 1509 1509 1509 1509 1509 1509 1509 1509 1508 1508 1507 1507 1507 1506 1506 1506 1506
1471 1472 1472 1472 1473 1474 1475 1475 1476 1476 1477 1478 1479 1479 1480 1481 1483 1484 1485 1486 1487 1488 1489 1490 1491 1492 1492 1493 1493 1494 1494 1495 1495 1495 1495 1496 1497 1497 1498 1498 1499 1500 1502 1504 1505 1506 1506 1506 1506 1507 1508 1508 1508 1508 1508 1508 1508 1507 1507 1507 1506 1506 1505 1505 1505 1504 1504 1504 1504
1469 1469 1470 1471 1472 1473 1474 1474 1474 1475 1476 1477 1478 1478 1479 1481 1482 1483 1484 1484 1485 1487 1488 1489 1489 1490 1490 1491 1491 1492 1492 1493 1493 1493 1494 1494 1495 1496 1497 1498 1499 1501 1502 1503 1504 1504 1504 1505 1506 1506 1507 1507 1507 1507 1507 1506 1506 1505 1505 1505 1504 1504 1504 1503 1503 1503 1503 1502 1502
1466 1468 1469 1470 1471 1472 1472 1473 1473 1474 1475 1476 1477 1478 1479 1480 1481 1482 1483 1484 1484 1485 1486 1487 1488 1488 1489 1489 1489 1490 1490 1491 1491 1492 1492 1493 1494 1496 1497 1499 1499 1501 1501 1502 1503 1503 1504 1504 1505 1506 1506 1506 1506 1505 1505 1504 1504 1504 1503 1503 1503 1502 1502 1502 1501 1501 1501 1500 1500
1465 1466 1467 1468 1469 1470 1471 1471 1472 1474 1474 1475 1476 1477 1478 1480 1481 1482 1482 1483 1484 1484 1485 1485 1486 1486 1487 1488 1488 1488 1489 1489 1489 1490 1492 1493 1494 1496 1497 1498 1499 1499 1500 1501 1502 1503 1503 1504 1504 1504 1504 1504 1504 1504 1503 1503 1502 1502 1501 1501 1501 1500 1500 1500 1499 1499 1499 1499 1498
1464 1465 1466 1467 1468 1469 1469 1470 1472 1473 1474 1475 1475 1477 1478 1479 1480 1481 1481 1481 1482 1483 1483 1484 1484 1485 1485 1485 1486 1486 1487 1488 1489 1490 1492 1494 1495 1496 1497 1497 1498 1499 1499 1500 1501 1502 1502 1503 1503 1503 1503 1502 1502 1502 1501 1501 1500 1500 1499 1499 1499 1499 1498 1498 1498 1497 1497 1497 1496
1464 1464 1465 1467 1468 1469 1469 1470 1471 1473 1474 1474 1475 1476 1477 1478 1479 1479 1480 1480 1481 1482 1482 1483 1483 1484 1484 1484 1484 1485 1486 1488 1489 1491 1492 1494 1494 1495 1496 1496 1497 1498 1499 1499 1500 1501 1501 1501 1501 1501 1501 1500 1500 1500 1499 1499 1499 1498 1498 1497 1497 1497 1496 1496 1496 1495 1495 1495 1494
1464 1464 1466 1467 1468 1469 1469 1470 1471 1472 1473 1474 1475 1476 1477 1477 1478 1479 1479 1479 1480 1481 1481 1482 1482 1483 1483 1483 1484 1485 1487 1488 1489 1491 1492 1493 1494 1494 1495 1495 1496 1497 1498 1498 1499 1500 1500 1500 1500 1499 1499 1499 1498 1498 1498 1497 1497 1496 1496 1495 1495 1495 1494 1494 1494 1494 1494 1493 1493
1464 1465 1466 1467 1468 1469 1469 1470 1471 1472 1473 1474 1474 1475 1476 1477 1478 1478 1478 1479 1479 1480 1480 1480 1481 1482 1482 1483 1484 1485 1487 1488 1489 1490 1491 1492 1492 1493 1494 1495 1495 1496 1497 1497 1498 1499 1499 1499 1498 1498 1498 1497 1497 1496 1496 1495 1495 1494 1494 1494 1493 1493 1493 1493 1492 1492 1492 1491 1491
1464 1464 1466 1467 1467 1468 1469 1469 1470 1471 1472 1473 1474 1475 1475 1476 1477 1477 1477 1478 1478 1479 1479 1479 1480 1481 1482 1483 1484 1485 1486 1487 1488 1489 1490 1490 1491 1492 1493 1494 1494 1495 1496 1496 1497 1497 1498 1497 1497 1497 1496 1496 1495 1494 1494 1494 1493 1493 1492 1492 1492 1491 1491 1491 1490 1490 1490 1489 1489
1463 1464 1464 1465 1466 1467 1468 1469 1469 1470 1471 1472 1473 1474 1474 1475 1475 1475 1475 1476 1477 1477 1478 1479 1479 1480 1481 1482 1484 1484 1485 1486 1487 1488 1489 1490 1491 1492 1492 1493 1494 1494 1495 1496 1496 1496 1496 1496 1495 1495 1494 1494 1494 1493 1493 1492 1491 1491 1490 1490 1490 1489 1489 1489 1488 1488 1487 1487 1486
1461 1462 1463 1464 1465 1466 1467 1468 1469 1469 1470 1471 1472 1472 1473 1473 1473 1474 1474 1475 1476 1476 1477 1478 1479 1480 1481 1482 1483 1484 1484 1485 1486 1487 1488 1489 1490 1491 1492 1492 1493 1494 1494 1495 1495 1495 1495 1494 1494 1494 1493 1492 1492 1491 1491 1490 1490 1489 1489 1488 1488 1487 1487 1486 1486 1485 1484 1484 1484
1459 1460 1462 1463 1464 1465 1466 1467 1468 1469 1469 1470 1470 1471 1471 1471 1472 1472 1473 1474 1475 1475 1476 1477 1478 1479 1480 1481 1482 1483 1484 1485 1486 1487 1488 1489 1489 1490 1491 1492 1493 1493 1494 1494 1494 1494 1493 1493 1492 1492 1491 1491 1490 1489 1489 1489 1488 1487 1486 1486 1485 1485 1484 1484 1484 1483 1482 1482 1481
1457 1459 1460 1461 1462 1464 1465 1466 1467 1468 1468 1469 1469 1469 1470 1470 1471 1472 1472 1473 1474 1475 1476 1477 1478 1479 1479 1480 1481 1482 1483 1484 1485 1486 1487 1488 1489 1490 1490 1491 1492 1492 1493 1493 1492 1492 1491 1491 1490 1490 1489 1489 1488 1488 1487 1487 1486 1485 1484 1484 1483 1483 1482 1481 1481 1480 1480 1479 1479